Regional Weather Roundup
Issued by NWS

Home | Current Version | Previous Version | Text Only | Print | Product List | Glossary On
Versions: 1 2 3 4 5 6 7 8 9 10 11 12 13 14 15 16 17 18 19 20 21 22 23 24 25 26 27 28 29 30 31 32 33 34 35 36 37 38 39 40 41 42 43 44 45 46 47 48 49 50
000
ASHW40 PHFO 140912
RWRHI

WEATHER ROUNDUP FOR HAWAII
NATIONAL WEATHER SERVICE HONOLULU HI
1100 PM HST SAT FEB 13 2016

THIS IS AN AUTOMATED REPORT THAT HAS NOT BEEN QUALITY CONTROLLED.

NOTE..."FAIR" INDICATES FEW OR NO CLOUDS BELOW 12,000 FEET WITH NO
SIGNIFICANT WEATHER AND/OR OBSTRUCTIONS TO VISIBILITY.

* - THESE SITES REPORT LIMITED FIELDS

HIZ001>004-141000-
KAUAI-NIIHAU-

CITY           SKY/WX    TMP DP  RH WIND       PRES   REMARKS
LIHUE APT      CLOUDY    76  69  79 E13       30.10S
PORT ALLEN*      N/A     68 N/A N/A N5          N/A
POIPU*           N/A     70 N/A N/A N3          N/A
PRINCEVILLE*     N/A     68 N/A N/A S3          N/A
KOKOLE POINT*  NOT AVBL
MOLOAA DAIRY*    N/A     73  68  83 E5G10       N/A
WAIMEA HTS*    NOT AVBL
PUU OPAE*      NOT AVBL
PUU LUA*       NOT AVBL
MAKAHA RIDGE*  NOT AVBL
$$

HIZ005>011-141000-
OAHU-

CITY           SKY/WX    TMP DP  RH WIND       PRES   REMARKS
HONOLULU       PTCLDY    76  65  68 N6        30.07F
KALAELOA       CLEAR     68  61  78 CALM      30.09S
KANEOHE MCB    MOCLDY    76  65  68 NE13G23   30.06F
WHEELER FIELD  FAIR      67  62  86 W2        30.09S
BELLOWS*       NOT AVBL
KAHUKU*        NOT AVBL
WHEELER*       NOT AVBL
WAIANAE HARBOR NOT AVBL
DILLINGHAM*      N/A     86  81  84 MISG        N/A  HX 102
KAHUKU TRN*      N/A     72  63  73 E9G21       N/A
KAWAILOA*        N/A     70  63  78 E6G17       N/A
KII*             N/A     75  68  78 E15G22      N/A
MAKUA RANGE*     N/A     82  75  78 SE6         N/A
OAHU FOREST NW NOT AVBL
SCHOFIELD BRK*   N/A     81  77  89 MISG        N/A
SCHOFIELD S*   NOT AVBL
WAIANAE VLY*   NOT AVBL
KUAOKALA*      NOT AVBL
HONOULIUULI*   NOT AVBL
MOKUOLOE IS*   NOT AVBL
PALEHUA*       NOT AVBL
WAIAWA PHB*    NOT AVBL
$$

HIZ012>013-141000-
MOLOKAI-

CITY           SKY/WX    TMP DP  RH WIND       PRES   REMARKS
MOLOKAI AIRPT  CLEAR     70  61  73 E6        30.08S
KALAUPAPA      NOT AVBL
MAKAPULAPAI*   NOT AVBL
MOLOKAI 1*     NOT AVBL
PUU ALII*      NOT AVBL
$$

HIZ016-141000-
KAHOOLAWE-

CITY           SKY/WX    TMP DP  RH WIND       PRES   REMARKS
KAHOOLAWE*     NOT AVBL
HAKIOAWA*      NOT AVBL
HONOKANAIA*      N/A     76  64  65 NE14G32   30.01
KANELOA*         N/A     73  63  68 E20G38    30.13R
KEALIALALO*    NOT AVBL
LUA MAKIKA*    NOT AVBL
$$

HIZ014>015-141000-
LANAI-

CITY           SKY/WX    TMP DP  RH WIND       PRES   REMARKS
LANAI CITY     CLOUDY    69  65  86 CALM      30.12S
LANAI 1*       NOT AVBL
$$

HIZ017>028-141000-
MAUI-

CITY           SKY/WX    TMP DP  RH WIND       PRES   REMARKS
KAHULUI        CLEAR     70  65  84 E7        30.07S
KAPALUA-W MAUI NOT AVBL
HANA AIRPORT   NOT AVBL
HANA*            N/A     75 N/A N/A SE7G15      N/A
HALEAKALA SUMM   N/A     48 -13   7 E6          N/A
MAALAEA BAY*   NOT AVBL
HALEAKALA*     NOT AVBL
KAUPO GAP*     NOT AVBL
KULA 1*          N/A    N/A N/A N/A E5          N/A
$$

HIZ023>026-141000-
BIG ISLAND OF HAWAII COAST AND LOWER SLOPES-

CITY           SKY/WX    TMP DP  RH WIND       PRES   REMARKS
KAILUA KONA    MOCLDY    76  67  73 CALM      30.05F
HILO           CLEAR     69  62  78 SW5       30.12S
HONOKAA*         N/A     64 N/A N/A VRB1        N/A
KAWAIHAE MWT*    N/A     77 N/A N/A SW5         N/A
KAWAIHAE*      NOT AVBL
SOUTH POINT*     N/A     70 N/A N/A N15G25      N/A
UPOLU AIRPORT*   N/A    N/A N/A N/A E10G17      N/A
KAMUELA*       NOT AVBL
HAKALAU*         N/A     48  14  25 SW7G14      N/A
KALOKO-HONOKO* NOT AVBL
PALI 2*          N/A     61  57  88 N12G18      N/A
KEALAKOMO*       N/A     73  64  73 NE10        N/A
KAUPULEHU*     NOT AVBL
KAPAPALA*        N/A     58  51  77 N3G10       N/A
LOWER KAHUKU*  NOT AVBL
PUHE CS*       NOT AVBL
PUHO CS*       NOT AVBL
PTA KEAMUKU*   NOT AVBL
WAIKOLOA*      NOT AVBL
$$

HIZ027>028-141000-
BIG ISLAND OF HAWAII INTERIOR AND SUMMMITS-

CITY           SKY/WX    TMP DP  RH WIND       PRES   REMARKS
BRADSHAW FIELD CLOUDY    56  11  16 SE6G18    30.36R
MK VISITOR CEN   N/A     52 -15   6 E7          N/A
MAUNA KEA*       N/A     39 -20   7 S9          N/A
MAUNA LOA*     NOT AVBL
MAUNA LOA 1*   NOT AVBL
PTA KIPUKA*      N/A     72  70  94 E5          N/A
PTA RANGE 17*    N/A     57  14  18 E12G24      N/A
PTA WEST*        N/A     55  54  94 E7          N/A
NENE CABIN*    NOT AVBL
AHUMOA*        NOT AVBL
PTA PORTABLE*  NOT AVBL
PUU MALI*        N/A     54  32  43 SE2G8       N/A
$$

HIC003-141000-
NORTHWEST ISLANDS-

CITY           SKY/WX    TMP DP  RH WIND       PRES   REMARKS
MIDWAY ISLAND  PTCLDY    57  39  51 NW10      30.23R
MIDWAY NOS*    NOT AVBL
FRENCH FRIGATE NOT AVBL
$$

PHZ110>124-180-141000-
BUOY REPORTS

STATION/POSITION TIME  TEMP    WIND        PRES    WAVE   SWELL
                       AIR SEA DIR/SP/G            HT/PER HT/DIR
                 (UTC) (F)     (DEG/KT/KT) (MB)    (FT/S) (FT/D)
BUOY 51001       0800   76 75  170/ 10/ 12 1018.5R
BUOY 51101       0850   73 75  250/ 12/ 17 1018.4S   6/17   5/270
BUOY 51100       NOT AVBL
BUOY 51002       0850   77 78   90/ 19/ 25 1016.1R  10/ 9
BUOY 51003       0850   77 78   90/ 16/ 19 1017.6R   6/ 8   5/100
BUOY 51004       0850   76 77   80/ 21/ 25 1016.8S  12/ 9   5/360
BARBERS PT BUOY  NOT AVBL
WAIMEA BAY BUOY  0804      77                N/A     4/12   2/340
KAILUA BAY BUOY  0811      77                N/A     6/ 7   2/ 20
LANAI BUOY       NOT AVBL
BARBERS PT 2     0903      78                N/A     4/11   2/230
PAUWELA MAUI     0807      76                N/A     7/ 7   2/350
HILO             0812      77                N/A     7/11   3/ 70
KANEOHE BAY BUOY 0806      76                N/A     5/ 7   2/350
HANALEI KAUAI    0901      77                N/A     5/12   2/330
KAHULUI HARBOR   NOT AVBL
HONOLULU HARBOR  0800   76 77   60/  4/  7 1018.9R
KILO NALU        NOT AVBL
HILO HARBOR      0800   72 76  230/  5/  8 1019.5R
MOKUOLOE         0800   76 77   70/  9/ 13 1019.0S
NAWILIWILI       0800   71 78  250/  4/  5 1019.0S
WHOTS BUOY       NOT AVBL
BUOY 51028       NOT AVBL
$$

......................KEY........................................
  SKY/WX - SKY CONDITIONS/PRESENT WEATHER
  TMP    - TEMPERATURE IN FAHRENHEIT
  DWPT   - DEWPOINT IN FAHRENHEIT
  RH     - RELATIVE HUMIDITY IN PERCENT
  WIND   - DIRECTION AND SPEED /MPH FOR ISLANDS...KTS FOR BUOYS/
  PRES   - MEAN SEA LEVEL PRESSURE IN INCHES OF HG
  VSB    - VISIBILITY IN MILES
  HX     - HEAT INDEX
  WCI    - WIND CHILL INDEX
  VRB    - VARIABLE WIND DIRECTION
  N/A    - NOT AVAILABLE



USA.gov is the U.S. government's official web portal to all federal, state and local government web resources and services.